Friday Harbor, WA

3:59 PM PDT on June 25, 2017 (GMT -0700)
Friday Harbor

Weather History for KFHR - September, 2011

Change the Weather History Date:

Thursday, September 29, 2011

  Actual Average Record
Temperature  
Mean Temperature 58 °F -  
Max Temperature 71 °F 61 °F 71 °F (2011)
Min Temperature 46 °F 44 °F 33 °F (1996)
Degree Days  
Heating Degree Days 7    
Growing Degree Days 8 (Base 50)    
Moisture  
Dew Point 44 °F    
Average Humidity 62    
Maximum Humidity 93    
Minimum Humidity 35    
Precipitation  
Precipitation 0.00 in - - ()
Sea Level Pressure  
Sea Level Pressure 29.94 in    
Wind  
Wind Speed 3 mph (North)    
Max Wind Speed 8 mph    
Max Gust Speed -    
Visibility 10 miles    
Events      
Averages and records for this station are not official NWS values.
T = Trace of Precipitation, MM = Missing Value Source: NWS Daily Summary

Daily Weather History Graph

Daily Weather History Graph

Search for Another Location

Airport or City:

Trip Planner

Search our weather history database for the weather conditions in past years. The results will help you decide how hot, cold, wet, or windy it might be!

Date:

Astronomy

Sep. 29, 2011 Rise Set
Actual Time 7:08 AM PDT 6:55 PM PDT
Civil Twilight 6:37 AM PDT 7:26 PM PDT
Nautical Twilight 6:00 AM PDT 8:03 PM PDT
Astronomical Twilight 5:23 AM PDT 8:40 PM PDT
Moon 10:20 AM PDT (9/29) 7:50 PM PDT (9/29)
Length of Visible Light 12h 49m
Length of Day
11h 47m
Waxing Crescent, 8% of the Moon is Illuminated
Sep 29
Waxing Crescent
Oct 3
First Quarter
Oct 11
Full
Oct 19
Last Quarter
Oct 26
New

Hourly Weather History & Observations

Time (PDT) Temp. Dew Point Humidity Pressure Visibility Wind Dir Wind Speed Gust Speed Precip Events Conditions
1:53 AM 51.1 °F 46.0 °F 83% 30.09 in 10.0 mi Calm Calm - N/A   Clear
2:53 AM 46.0 °F 44.1 °F 93% 30.07 in 10.0 mi Calm Calm - N/A   Clear
3:53 AM 51.1 °F 46.0 °F 83% 30.06 in 10.0 mi NNW 5.8 mph - N/A   Clear
5:53 AM 51.1 °F 46.0 °F 83% 30.03 in 10.0 mi NNW 3.5 mph - N/A   Clear
7:53 AM 52.0 °F 46.0 °F 80% 30.00 in 10.0 mi Variable 3.5 mph - N/A   Clear
8:53 AM 55.9 °F 46.0 °F 69% 29.99 in 10.0 mi NNE 4.6 mph - N/A   Clear
9:53 AM 61.0 °F 46.0 °F 58% 29.99 in 10.0 mi Variable 3.5 mph - N/A   Clear
10:53 AM 64.0 °F 42.1 °F 45% 29.98 in 10.0 mi ENE 5.8 mph - N/A   Clear
11:53 AM 66.9 °F 42.1 °F 40% 29.96 in 10.0 mi North 4.6 mph - N/A   Clear
12:53 PM 69.1 °F 39.9 °F 35% 29.94 in 10.0 mi NNE 5.8 mph - N/A   Clear
1:53 PM 69.1 °F 39.9 °F 35% 29.92 in 10.0 mi North 4.6 mph - N/A   Clear
2:53 PM 70.0 °F 42.1 °F 36% 29.90 in 10.0 mi North 8.1 mph - N/A   Clear
3:53 PM 68.0 °F 42.1 °F 39% 29.87 in 10.0 mi North 4.6 mph - N/A   Clear
5:53 PM 64.0 °F 43.0 °F 46% 29.83 in 10.0 mi Variable 3.5 mph - N/A   Clear
6:53 PM 60.1 °F 45.0 °F 57% 29.82 in 10.0 mi Calm Calm - N/A   Clear
7:53 PM 57.0 °F 46.0 °F 67% 29.83 in 10.0 mi Calm Calm - N/A   Clear
9:53 PM 55.0 °F 46.0 °F 72% 29.84 in 10.0 mi WSW 5.8 mph - N/A   Clear
10:53 PM 53.1 °F 46.0 °F 77% 29.85 in 10.0 mi Calm Calm - N/A   Clear
11:53 PM 53.1 °F 46.0 °F 77% 29.84 in 10.0 mi Calm Calm - N/A   Clear